Home   Weather   Kumamoto   Past weeks

Flag for Japan Past Weather in Kumamoto, Japan — Yesterday and Last 2 Weeks

Now
66 °F

Mild.


Feels Like: 66 °F
Forecast: 61 / 80 °F
Wind: 1 mph from Northeast

Location: Kumamoto

Current Time: May 25, 2017 at 2:45:15 am

Latest Report: May 25, 2017 at 1:00 am


Visibility: N/A

Pressure: 29.75 "Hg

Humidity: 100%

Dew Point: 66 °F

Location of KumamotoLocation

Past Weather in Kumamoto — Graph

°F

Kumamoto Temperature Yesterday

Maximum temperature yesterday: 72 °F (at 12:00 pm)
Minimum temperature yesterday: 67 °F (at 10:00 pm)
Average temperature yesterday: 70 °F

High & Low Weather Summary for the Past Weeks

 TemperatureHumidityPressure
High87 °F (May 20, 2:00 pm)100% (May 12, 5:00 pm)30.09 "Hg (May 12, 5:00 pm)
Low54 °F (May 16, 5:00 am)27% (May 20, 1:00 pm)29.62 "Hg (May 13, 2:00 am)
Average68 °F69%29.90 "Hg
* Reported May 10 1:00 am — May 25 1:00 am, Kumamoto. Weather by CustomWeather, © 2017

Note: Actual official high and low records may vary slightly from our data, if they occured in-between our weather recording intervals... More about our weather records

Advertising

Kumamoto Weather History for the Previous 24 Hours

Scroll right to see more
 ConditionsComfort  
Time TempWeatherWind HumidityBarometerVisibility
1:00 am
Thu, May 25
66 °FMild.1 mph100%29.75 "HgN/A
12:00 am66 °FMild.2 mph100%29.76 "HgN/A
11:00 pm
Wed, May 24
67 °FMild.2 mph99%29.77 "HgN/A
10:00 pm67 °FMild.5 mph97%29.78 "HgN/A
9:00 pm68 °FLight rain. Overcast.3 mph96%29.76 "Hg5 mi
8:00 pm68 °FMild.2 mph95%29.75 "HgN/A
7:00 pm68 °FMild.2 mph92%29.75 "HgN/A
6:00 pm68 °FLight rain. Low clouds.2 mph94%29.73 "Hg6 mi
5:00 pm67 °FMild.No wind94%29.73 "HgN/A
4:00 pm68 °FMild.1 mph92%29.75 "HgN/A
3:00 pm69 °FLight rain. Overcast.1 mph92%29.75 "Hg4 mi
2:00 pm69 °FMild.3 mph86%29.77 "HgN/A
1:00 pm71 °FMild.3 mph78%29.76 "HgN/A
12:00 pm72 °FLight rain. Overcast.3 mph71%29.78 "Hg9 mi
11:00 am71 °FMild.5 mph81%29.79 "HgN/A
10:00 am71 °FMild.3 mph77%29.79 "HgN/A
9:00 am72 °FOvercast.3 mph77%29.80 "Hg9 mi
8:00 am69 °FMild.3 mph81%29.80 "HgN/A
7:00 am69 °FMild.3 mph83%29.81 "HgN/A
6:00 am69 °FOvercast.2 mph83%29.80 "Hg9 mi
5:00 am69 °FMild.5 mph78%29.80 "HgN/A
4:00 am70 °FMild.3 mph75%29.79 "HgN/A
3:00 am71 °FOvercast.3 mph76%29.79 "Hg19 mi
2:00 am71 °FMild.2 mph71%29.79 "HgN/A
Weather by CustomWeather, © 2017

See weather overviewHow to use our weather pages